[[{"header":{"parameterUnit":"m.s-1","parameterCategory":1,"la1":30.2991,"la2":30.254,"lo1":-89.0895,"lo2":-89.0444,"dy":0.0017,"dx":0.0017,"nx":28,"ny":28,"refTime":"2025-02-27T09:00:00:Z","depth":0,"parameterNumber":2,"parameterNumberName":"U-component_of_WINDS"},"data":[0,0,0,0,0,0,0,0,0,0,0,0,0,0,0,0,0,0,0,0,0,0,0,0,0,0,0,0,0,0,0,0,0,0,0,0,0,0,0,0,0,0,0,0,0,0,0,0,0,0,0,0,0,0,0,0,0,0,1.0725,1.0725,0,1.0732,1.0732,1.0732,1.0718,1.0717,1.0717,1.0716,1.0723,1.0724,1.0725,0,0,0,0,0,0,0,0,0,0,0,0,0,1.07,1.07,1.0725,1.0725,1.0725,1.0732,1.0732,1.0732,1.0718,1.0717,1.0717,1.0716,1.0723,1.0724,1.0725,0,0,0,0,0,0,0,0,0,0,0,0,0,1.0709,1.0701,1.0725,1.0719,1.0718,1.0732,1.0732,1.0732,1.0718,1.0717,1.0716,1.0716,1.0723,1.0724,1.0725,1.0744,0,0,1.0728,1.0728,0,0,0,0,0,0,0,0,1.0709,1.071,1.072,1.0719,1.0719,1.0723,1.0725,1.0736,1.0718,1.0718,1.0716,1.0715,1.0724,1.0725,1.0727,1.0745,1.0745,1.0728,1.0728,1.0729,1.0729,0,0,0,0,0,0,0,1.0708,1.071,1.0728,1.072,1.0719,1.0716,1.0716,1.0727,1.0725,1.0718,1.0717,1.0718,1.0723,1.0727,1.0727,1.0745,1.0728,1.0728,1.0729,1.0729,1.0777,1.0778,0,0,0,0,0,0,1.0708,1.0709,1.0728,1.0728,1.0712,1.0717,1.0717,1.0722,1.0725,1.0724,1.0719,1.0717,1.0725,1.0726,1.0728,1.075,1.0729,1.0729,1.073,1.0776,1.0777,1.0778,0,0,0,0,0,0,1.0708,1.071,1.0727,1.0718,1.072,1.0718,1.0724,1.0723,1.0726,1.0725,1.0724,1.0722,1.0725,1.0726,1.074,1.075,1.073,1.0731,1.0776,1.0777,1.0778,1.0794,0,0,0,0,0,0,1.0707,1.071,1.0717,1.0719,1.0721,1.074,1.0724,1.0724,1.0728,1.0726,1.0728,1.0728,1.0724,1.0739,1.0741,1.0751,1.0731,1.0775,1.0776,1.0777,1.0793,1.0796,1.0798,0,0,0,0,0,1.0706,1.0722,1.0718,1.072,1.073,1.074,1.0741,1.0737,1.0728,1.0736,1.0735,1.0728,1.0748,1.074,1.0742,1.0753,1.0774,1.0776,1.0777,1.0792,1.0795,1.0798,0,0,0,0,0,0,1.0723,1.0722,1.0717,1.0734,1.0737,1.0738,1.0747,1.0741,1.0747,1.0745,1.0739,1.074,1.0754,1.0755,1.0746,1.0771,1.076,1.0762,1.077,1.0773,1.0776,1.0775,1.0732,0,0,0,0,0,1.0728,1.0736,1.0736,1.0751,1.0752,1.0749,1.0754,1.075,1.0753,1.0754,1.0754,1.0757,1.0764,1.0769,1.0775,1.0793,1.0793,1.0801,1.0804,1.0806,1.0808,1.0816,1.0819,1.0783,1.0783,1.0783,0,0,1.074,1.0741,1.0746,1.0754,1.0756,1.0764,1.0751,1.076,1.0766,1.0755,1.0768,1.0768,1.0771,1.0786,1.0793,1.0787,1.0818,1.0808,1.081,1.081,1.0818,1.0821,1.0824,1.0784,1.0784,1.0784,0,0,1.0765,1.0767,1.0779,1.0781,1.0784,1.0781,1.0784,1.0785,1.0785,1.0797,1.0789,1.0796,1.0808,1.081,1.0813,1.0838,1.0831,1.084,1.0854,1.0862,1.0865,1.0868,1.0875,1.0878,1.0842,1.0842,1.0842,0,1.0779,1.0791,1.0786,1.0796,1.0799,1.0789,1.0801,1.0803,1.0808,1.081,1.0804,1.0818,1.082,1.0835,1.0841,1.0844,1.0846,1.084,1.0865,1.0868,1.087,1.0877,1.088,1.0843,1.0843,1.0843,1.0843,0,1.0808,1.0816,1.0826,1.083,1.0834,1.0845,1.0841,1.0846,1.0842,1.084,1.0852,1.0853,1.0859,1.0863,1.0859,1.0877,1.0873,1.0866,1.0855,1.0874,1.0881,1.0884,1.0845,1.0844,1.0844,1.0844,0,0,1.0844,1.0844,1.0848,1.0849,1.0851,1.0857,1.0867,1.0872,1.0876,1.088,1.0888,1.0898,1.0891,1.0894,1.089,1.0898,1.0916,1.0889,1.0889,1.0893,1.0934,1.0939,1.0942,1.0911,1.0912,1.0912,1.0934,0,1.0868,1.0885,1.088,1.0896,1.0903,1.0894,1.0903,1.0904,1.0903,1.0909,1.0907,1.0914,1.0905,1.0907,1.0913,1.0912,1.0924,1.0911,1.0918,1.0918,1.0917,1.0946,1.0951,1.0971,1.0936,1.0937,1.0937,0,1.0898,1.0902,1.0919,1.0919,1.0921,1.0929,1.0933,1.0939,1.0941,1.0939,1.0942,1.0936,1.0946,1.0935,1.0947,1.0938,1.0941,1.094,1.0941,1.0941,1.0928,1.0946,1.0977,1.098,1.0942,1.0941,1.0941,0,1.0921,1.0931,1.0942,1.0943,1.0944,1.0949,1.0949,1.095,1.0953,1.0957,1.0959,1.0964,1.0966,1.097,1.0966,1.0958,1.0978,1.0967,1.0976,1.0976,1.0981,1.098,1.1012,1.0984,1.0984,1.0984,1.0984,0,1.0948,1.0959,1.0952,1.0959,1.097,1.0964,1.0976,1.0975,1.0976,1.0982,1.0975,1.0981,1.0975,1.098,1.0977,1.0987,1.0989,1.0987,1.0986,1.0987,1.0987,1.0988,1.0987,1.0985,1.0984,1.0984,1.0984,0,1.0975,1.0972,1.0983,1.0982,1.0981,1.099,1.0989,1.0995,1.0992,1.1,1.1002,1.0998,1.1004,1.1,1.1007,1.1004,1.1017,1.1015,1.1016,1.1015,1.1025,1.1024,1.1058,1.1062,1.1032,1.1032,1.1032,0,1.0992,1.1,1.0999,1.1002,1.1003,1.1009,1.1012,1.1006,1.101,1.1011,1.1017,1.1022,1.1026,1.1036,1.1034,1.1038,1.1035,1.1047,1.1036,1.1036,1.1034,1.1033,1.1033,1.1049,1.1049,1.1049,1.105,0,1.1022,1.1019,1.1024,1.1027,1.1031,1.1033,1.1035,1.1039,1.1033,1.1037,1.1043,1.1045,1.1051,1.1056,1.106,1.106,1.1053,1.1053,1.1055,1.1056,1.1056,1.1055,1.1021,1.1052,1.1052,1.1052,1.1052,1.1051,1.1044,1.105,1.105,1.1055,1.1055,1.1057,1.1062,1.106,1.1065,1.1069,1.1065,1.1072,1.1072,1.1076,1.1077,1.1082,1.1077,1.1081,1.1081,1.1082,1.1083,1.1056,1.1083,1.1083,1.1083,1.1082,1.1082,0,1.1072,1.1072,1.1076,1.1079,1.1082,1.1076,1.1078,1.1081,1.1086,1.1088,1.1091,1.1097,1.1101,1.11,1.1103,1.1108,1.1105,1.1109,1.1108,1.1108,1.1088,1.1085,1.1111,1.1111,1.1111,1.1111,1.1111,1.1111,1.1087,1.1097,1.1094,1.1103,1.1103,1.1108,1.111,1.1111,1.1112,1.1118,1.1122,1.1121,1.112,1.1124,1.1128,1.1127,1.1128,1.1133,1.1131,1.1112,1.1109,1.1107,1.1104,1.1134,1.1134,1.1151,1.1151,1.1151]},{"header":{"parameterUnit":"m.s-1","parameterCategory":1,"la1":30.2991,"la2":30.254,"lo1":-89.0895,"lo2":-89.0444,"dy":0.0017,"dx":0.0017,"nx":28,"ny":28,"refTime":"2025-02-27T09:00:00:Z","depth":0,"parameterNumber":3,"parameterNumberName":"V-component_of_WINDS"},"data":[0,0,0,0,0,0,0,0,0,0,0,0,0,0,0,0,0,0,0,0,0,0,0,0,0,0,0,0,0,0,0,0,0,0,0,0,0,0,0,0,0,0,0,0,0,0,0,0,0,0,0,0,0,0,0,0,0,0,1.5949,1.5948,0,1.5892,1.5891,1.5891,1.5844,1.5843,1.5843,1.5842,1.578,1.5779,1.5778,0,0,0,0,0,0,0,0,0,0,0,0,0,1.6014,1.6013,1.5949,1.5948,1.5948,1.5892,1.5891,1.589,1.5844,1.5843,1.5843,1.5842,1.5781,1.5779,1.5778,0,0,0,0,0,0,0,0,0,0,0,0,0,1.5974,1.6013,1.5949,1.5918,1.5914,1.5892,1.5891,1.589,1.5844,1.5843,1.5842,1.5842,1.5781,1.5779,1.5778,1.5781,0,0,1.5772,1.5771,0,0,0,0,0,0,0,0,1.5977,1.5972,1.5923,1.592,1.5916,1.5874,1.5891,1.5853,1.5844,1.587,1.5842,1.5841,1.5812,1.5807,1.5798,1.5778,1.5775,1.5772,1.5771,1.577,1.577,0,0,0,0,0,0,0,1.5979,1.5974,1.5926,1.5922,1.5918,1.5905,1.5899,1.5884,1.5846,1.5868,1.5865,1.5859,1.581,1.58,1.5796,1.5774,1.5772,1.577,1.5769,1.5769,1.5753,1.5754,0,0,0,0,0,0,1.5988,1.5977,1.5928,1.5925,1.5945,1.5905,1.5897,1.5888,1.5846,1.5839,1.5859,1.5857,1.5804,1.5799,1.5794,1.5794,1.577,1.5768,1.5767,1.5752,1.5753,1.5754,0,0,0,0,0,0,1.5989,1.5984,1.593,1.595,1.5942,1.5904,1.5894,1.5888,1.5878,1.5839,1.5832,1.5857,1.5803,1.5797,1.5785,1.5792,1.5768,1.5766,1.5752,1.5753,1.5754,1.5796,0,0,0,0,0,0,1.5991,1.5985,1.5986,1.595,1.5941,1.5923,1.5895,1.5887,1.5875,1.5871,1.5835,1.5828,1.5802,1.5788,1.5783,1.5789,1.5765,1.5751,1.5752,1.5753,1.5794,1.5798,1.5802,0,0,0,0,0,1.5994,1.6,1.5987,1.5981,1.5943,1.5924,1.5918,1.5889,1.5876,1.5877,1.5852,1.5829,1.5792,1.5787,1.5781,1.5787,1.575,1.5752,1.5753,1.5792,1.5798,1.5802,0,0,0,0,0,0,1.6037,1.5995,1.5979,1.5974,1.5953,1.5916,1.5916,1.5896,1.5877,1.5874,1.5837,1.5829,1.5821,1.5802,1.5797,1.5787,1.5768,1.5768,1.5799,1.5804,1.5809,1.5813,1.5763,0,0,0,0,0,1.6046,1.6035,1.5998,1.5997,1.5988,1.5954,1.5944,1.5924,1.59,1.589,1.5864,1.5841,1.5824,1.5813,1.5795,1.5791,1.5782,1.5792,1.5796,1.58,1.58,1.5796,1.58,1.5759,1.5759,1.5759,0,0,1.6064,1.604,1.6035,1.6005,1.5986,1.5975,1.5946,1.5935,1.5926,1.5888,1.5875,1.5856,1.5827,1.5819,1.5814,1.5803,1.581,1.5802,1.5805,1.5803,1.5798,1.5802,1.5805,1.576,1.576,1.576,0,0,1.6091,1.6073,1.6069,1.6051,1.6023,1.6001,1.6,1.5966,1.5952,1.5938,1.5909,1.5897,1.5869,1.5849,1.5836,1.5856,1.5833,1.5851,1.5873,1.5869,1.5872,1.5874,1.5881,1.5883,1.5852,1.5852,1.5852,0,1.6117,1.61,1.607,1.6061,1.6048,1.6014,1.601,1.5993,1.5961,1.5952,1.5941,1.5904,1.5883,1.5869,1.5874,1.5865,1.5862,1.5854,1.5874,1.5876,1.5878,1.5884,1.5886,1.5854,1.5854,1.5853,1.5853,0,1.6133,1.6121,1.6121,1.6092,1.6079,1.6073,1.6041,1.6031,1.6012,1.599,1.5976,1.5949,1.5925,1.5921,1.5901,1.5904,1.5898,1.5881,1.5861,1.5885,1.5889,1.5891,1.5857,1.5856,1.5856,1.5855,0,0,1.6185,1.6139,1.614,1.6126,1.6092,1.6082,1.6074,1.6051,1.6043,1.6022,1.6013,1.599,1.5974,1.5958,1.5936,1.5933,1.5949,1.5916,1.5914,1.5922,1.595,1.5962,1.5965,1.5935,1.5935,1.5935,1.5952,0,1.6206,1.619,1.6163,1.6155,1.6143,1.6111,1.6103,1.6081,1.6061,1.6047,1.6023,1.6007,1.5988,1.5978,1.5974,1.5948,1.5954,1.5947,1.5925,1.5924,1.5932,1.5968,1.5981,1.5998,1.5953,1.5954,1.5954,0,1.6229,1.621,1.6202,1.6169,1.6163,1.6157,1.6133,1.6121,1.6095,1.608,1.6063,1.6039,1.6027,1.601,1.5992,1.5988,1.5977,1.5963,1.5963,1.5959,1.594,1.5964,1.6002,1.6005,1.5957,1.5956,1.5956,0,1.6267,1.6239,1.6231,1.622,1.6181,1.6178,1.6161,1.6135,1.6123,1.6102,1.6094,1.6072,1.606,1.6043,1.6013,1.6003,1.5998,1.5978,1.5984,1.5985,1.5983,1.5984,1.602,1.5978,1.5978,1.5978,1.5978,0,1.6293,1.6288,1.6247,1.6242,1.6235,1.6204,1.6198,1.6179,1.6155,1.6145,1.6115,1.6105,1.6067,1.6052,1.6029,1.6017,1.6012,1.5998,1.5992,1.6001,1.6002,1.5992,1.599,1.5979,1.5979,1.5979,1.5979,0,1.6334,1.6306,1.6294,1.6259,1.625,1.6247,1.6217,1.6209,1.6188,1.6174,1.6169,1.6134,1.6115,1.6084,1.6056,1.604,1.6032,1.6022,1.6042,1.6037,1.6045,1.6044,1.6075,1.6077,1.6036,1.6036,1.6036,0,1.6352,1.6348,1.6313,1.6304,1.6289,1.6275,1.6263,1.6232,1.622,1.619,1.6186,1.6166,1.6147,1.6118,1.6089,1.6068,1.6056,1.6068,1.6052,1.6061,1.6055,1.6055,1.6054,1.6072,1.6073,1.6073,1.6073,0,1.6386,1.6373,1.6357,1.6337,1.6323,1.6305,1.6286,1.628,1.6244,1.6232,1.6213,1.6199,1.6171,1.615,1.6124,1.6106,1.6083,1.6079,1.6079,1.6087,1.6098,1.6091,1.6051,1.6078,1.6078,1.6077,1.6077,1.6077,1.6415,1.641,1.6385,1.6368,1.635,1.6333,1.6324,1.6302,1.6286,1.6261,1.6243,1.6225,1.6198,1.6162,1.6145,1.6129,1.6119,1.6119,1.6119,1.6119,1.6122,1.6102,1.6124,1.6124,1.6124,1.6124,1.6124,0,1.6447,1.643,1.6415,1.6389,1.6376,1.6357,1.6335,1.6324,1.6309,1.6287,1.627,1.6248,1.6227,1.6197,1.6174,1.6168,1.6157,1.6163,1.6162,1.6158,1.6133,1.6135,1.6172,1.6172,1.6172,1.6172,1.6172,1.6172,1.6463,1.6453,1.6436,1.6417,1.6399,1.6382,1.637,1.6354,1.6336,1.6313,1.6296,1.6277,1.6251,1.6226,1.6206,1.6198,1.619,1.6199,1.6187,1.6164,1.616,1.6156,1.6157,1.6198,1.6198,1.6213,1.6214,1.6214]}]]